Wind_Speed
33 35 37 38 39 37 37 39 39 38 38 38 38 38 38 37 38 39 39 41 42 42 43 45 46 48 49 51 52 54 56 59 65 65 66 65 61 65 66 66 60 58 57
36 39 39 37 36 36 37 37 37 37 38 38 37 37 38 39 39 38 39 39 40 41 43 44 46 48 50 52 53 55 56 58 61 66 64 67 67 62 63 66 68 65 62
43 40 36 35 35 36 36 36 37 38 37 37 38 38 37 37 37 38 38 38 39 40 43 47 49 52 53 54 54 54 55 57 58 62 64 64 67 67 65 64 65 68 67
37 34 35 35 35 36 36 36 36 36 37 38 36 36 36 36 36 37 39 40 40 42 43 46 50 51 53 53 52 53 54 55 56 59 60 62 63 64 67 66 66 67 69
34 35 35 35 35 35 34 34 36 37 38 37 35 36 36 36 38 38 39 39 40 41 44 48 51 53 53 52 51 51 53 55 56 59 59 60 60 64 66 66 65 63 65
35 35 35 35 34 33 33 35 37 37 36 36 37 37 37 38 38 38 39 40 41 43 46 49 52 54 53 51 50 50 51 52 54 56 57 59 59 60 63 64 66 64 60
34 33 34 33 32 33 34 36 37 37 38 38 38 39 39 39 39 39 40 41 42 44 47 50 52 55 52 51 49 49 49 49 49 49 49 49 49 46 48 50 52 57 60
32 32 31 32 33 34 35 36 38 39 39 39 40 41 41 41 41 41 42 43 43 45 48 51 53 56 52 51 49 49 48 46 43 43 43 42 41 38 37 37 37 41 43
30 29 29 31 33 35 35 36 38 39 40 41 42 42 42 41 42 42 44 44 44 46 50 52 54 56 51 47 47 47 45 43 40 40 39 39 38 37 36 36 35 36 37
28 27 29 31 33 33 34 36 38 39 40 42 43 44 43 42 43 43 45 44 46 48 50 53 55 56 51 46 45 45 45 43 41 37 34 35 36 38 37 38 39 40 41
27 27 28 30 31 32 34 36 37 39 40 42 44 45 45 43 43 44 44 44 47 50 52 55 56 53 48 43 41 41 42 42 40 38 36 34 31 31 30 32 35 37 38
27 28 30 29 29 32 33 35 37 39 42 43 44 44 45 45 45 44 43 44 46 49 52 55 55 50 45 41 39 39 40 39 38 37 34 31 30 29 29 30 30 31 32
28 29 29 30 32 34 35 37 39 41 43 44 45 44 45 45 44 42 44 44 46 48 52 50 51 46 42 39 37 38 38 37 36 35 34 32 30 30 30 29 30 30 32
31 31 32 33 35 37 38 38 40 43 44 45 44 45 46 44 42 42 43 43 46 49 52 49 45 41 38 38 36 36 37 37 36 34 33 32 32 31 30 30 31 31 35
33 35 36 36 37 39 39 39 41 41 42 43 44 46 45 43 43 42 41 43 47 49 50 46 41 36 34 34 33 35 35 35 34 34 33 32 31 32 31 32 33 33 35
35 37 37 36 37 38 40 39 39 41 43 44 46 46 45 44 43 42 42 43 46 47 47 42 37 33 33 31 30 30 32 33 33 32 32 32 31 30 29 29 30 32 33
35 35 36 37 37 38 38 40 41 44 46 46 46 46 46 45 44 42 41 43 45 46 43 38 34 32 31 30 30 30 29 29 30 30 31 31 31 30 30 29 28 29 29
34 35 36 34 36 39 42 45 47 48 48 47 46 46 45 44 43 41 41 44 45 43 40 35 32 31 30 29 29 29 28 27 27 28 29 30 30 30 29 28 27 28 29
34 34 35 38 42 45 47 49 50 51 51 50 48 47 45 43 42 41 42 44 44 40 36 33 31 31 30 29 29 28 27 26 27 27 28 29 29 29 27 27 27 26 28
35 37 40 43 47 49 51 52 53 54 54 53 52 49 47 45 43 41 42 44 43 38 34 32 31 31 31 30 29 28 26 26 25 26 27 27 27 28 27 26 26 26 25
39 42 45 48 51 53 55 57 58 60 59 58 56 53 51 48 45 41 42 43 41 36 33 31 30 30 30 29 28 26 26 25 24 25 25 26 27 25 25 25 25 24 24
43 46 48 50 53 56 59 61 62 62 61 59 56 53 52 49 45 41 41 40 39 34 32 30 28 27 26 25 25 24 24 24 23 23 23 23 25 24 24 23 23 22 21
45 46 48 52 56 59 61 61 61 61 59 56 52 49 49 47 44 40 39 38 35 32 30 28 25 23 23 23 22 22 22 23 22 23 22 22 23 22 23 23 21 20 19
45 47 50 53 55 56 58 56 53 51 50 47 46 44 43 41 39 37 36 34 31 29 26 24 21 20 20 21 21 21 21 22 22 21 22 22 21 21 22 21 21 20 18
46 49 49 48 50 50 47 44 41 38 36 35 34 35 34 34 33 32 32 30 27 24 23 21 19 18 19 19 19 19 19 21 22 21 21 21 21 21 21 21 20 19 18
45 44 42 41 43 40 36 33 29 26 23 23 24 26 27 27 28 27 27 26 23 21 21 19 18 18 18 18 18 19 19 20 21 21 21 20 20 20 20 19 19 19 17
Wind_Direction
287 291 293 293 293 295 295 296 297 298 300 301 302 301 300 299 297 295 294 293 294 293 293 292 292 291 290 289 288 287 286 285 284 282 283 283 278 276 275 273 269 265 262
289 292 291 292 293 294 296 297 298 299 299 299 299 298 297 295 294 293 292 291 290 291 292 293 294 295 295 295 293 291 288 285 284 282 281 282 281 277 276 275 274 270 267
289 287 288 290 291 292 293 293 293 294 295 295 295 293 292 292 292 294 294 295 296 297 298 300 301 302 302 300 298 294 291 288 287 285 280 279 279 279 274 271 271 273 271
281 284 288 289 288 287 287 288 289 290 292 292 292 292 294 294 295 296 296 297 298 299 301 304 307 308 307 303 298 295 293 291 289 287 285 282 282 280 278 274 267 266 269
279 285 285 283 281 281 284 283 287 289 290 292 292 294 295 296 297 296 296 297 298 300 305 308 311 311 310 304 300 297 295 293 290 288 286 283 281 279 277 277 274 268 263
281 282 278 277 277 278 280 285 288 290 291 292 294 295 296 296 295 295 297 298 300 303 308 311 313 313 310 306 303 301 299 296 292 290 288 285 281 278 276 274 274 272 268
284 274 272 273 274 279 282 285 287 289 290 291 293 295 296 295 294 296 298 299 301 306 310 312 314 316 312 308 306 303 301 298 297 296 291 288 286 284 280 276 274 273 271
274 269 268 272 276 278 280 282 284 286 287 289 292 296 296 295 294 296 298 298 301 306 310 314 317 318 314 311 308 306 304 301 300 293 288 287 287 286 283 280 278 277 277
270 268 272 274 277 278 278 279 281 282 284 287 291 295 297 296 293 295 296 297 301 305 310 314 318 319 313 310 308 307 305 303 297 291 287 284 282 281 280 280 279 280 278
273 272 271 274 276 276 278 278 279 279 281 285 290 293 294 295 293 293 295 295 298 305 310 313 316 318 315 313 310 309 307 306 300 296 289 281 279 281 281 281 280 277 277
270 273 275 276 274 277 280 280 278 279 281 285 288 291 293 294 294 293 294 294 300 306 310 313 316 315 312 310 309 309 307 305 302 300 299 296 292 283 276 269 269 274 277
274 278 279 275 275 281 284 282 278 279 281 286 289 291 293 293 295 293 292 295 302 307 310 315 316 313 310 309 310 310 308 305 302 299 296 296 293 291 287 283 280 278 278
278 282 278 274 278 282 285 283 280 281 284 287 290 292 295 294 294 291 292 296 303 307 310 314 313 310 308 308 310 310 310 307 305 302 297 294 292 291 289 286 282 282 282
283 280 278 275 276 280 283 282 281 283 287 289 290 292 292 292 291 290 291 296 300 304 310 313 310 308 308 310 312 314 314 313 312 309 305 298 291 287 287 287 284 285 285
278 275 275 273 275 278 281 284 284 285 287 289 290 290 289 289 289 290 292 296 301 306 310 310 308 306 307 309 314 316 317 317 315 313 311 306 300 293 287 285 287 288 290
273 274 273 274 281 284 285 285 286 287 287 290 290 289 288 289 289 287 292 297 301 306 308 307 306 305 307 310 315 318 319 321 320 315 311 308 304 300 295 289 289 289 290
272 277 276 282 282 282 284 287 289 289 290 290 291 289 287 288 289 288 292 296 302 305 304 304 303 303 305 309 314 317 321 322 322 322 318 310 304 301 300 297 295 292 290
274 275 277 277 279 281 283 285 286 287 287 287 287 286 285 285 286 286 290 295 301 303 301 301 301 301 302 306 310 314 319 321 324 325 323 319 314 304 301 299 295 294 295
272 271 274 276 279 282 284 286 286 286 285 284 283 282 282 282 282 283 288 293 298 300 297 298 297 296 298 301 304 308 313 319 324 327 326 325 325 319 307 302 300 294 293
271 274 278 281 284 286 287 287 286 285 284 282 281 280 278 278 278 280 285 291 296 296 294 296 293 293 296 298 300 303 308 314 320 325 328 327 328 325 319 312 307 304 298
276 280 284 286 288 289 290 289 286 284 281 279 277 275 273 272 273 276 282 287 292 291 291 291 290 290 293 296 298 301 305 310 316 320 326 328 329 326 328 322 314 310 305
281 284 287 290 293 293 292 288 286 284 281 278 274 271 269 269 269 271 276 281 286 284 287 287 286 289 291 295 299 303 305 307 312 315 321 327 329 329 329 329 324 316 310
285 290 294 297 298 297 295 293 289 285 280 275 270 266 264 264 265 268 270 276 278 280 283 283 285 289 294 297 302 306 308 309 311 312 318 325 326 333 334 332 330 328 322
294 297 300 301 301 300 297 294 290 285 279 272 265 260 259 259 261 261 265 269 270 275 276 275 281 286 291 296 301 306 309 311 314 315 316 320 324 329 333 336 337 336 334
299 301 302 302 304 305 303 300 296 288 278 269 261 255 253 253 255 257 260 262 265 266 265 269 275 282 288 294 301 306 309 310 314 317 318 318 320 323 326 330 336 339 340
300 301 302 306 312 311 310 308 304 297 284 270 258 251 249 250 252 253 254 256 256 254 257 265 274 281 288 295 300 305 308 308 311 312 315 317 315 314 316 321 326 331 338
Height
3105 3104 3102 3100 3097 3095 3093 3091 3089 3086 3083 3080 3077 3074 3071 3068 3065 3062 3057 3054 3050 3047 3044 3040 3036 3032 3029 3025 3021 3016 3012 3006 2997 2999 2994 2994 2999 2997 2997 2996 3000 3002 3003
3096 3094 3092 3091 3089 3086 3085 3082 3080 3076 3075 3071 3069 3066 3062 3059 3055 3052 3049 3045 3042 3038 3034 3031 3027 3022 3017 3012 3007 3003 2997 2993 2985 2980 2984 2977 2976 2981 2979 2978 2977 2981 2985
3086 3086 3086 3082 3079 3076 3075 3073 3072 3070 3065 3063 3060 3057 3053 3050 3046 3043 3039 3036 3032 3028 3024 3019 3014 3009 3004 2998 2993 2987 2982 2977 2971 2965 2966 2962 2957 2956 2960 2962 2961 2960 2961
3078 3078 3076 3072 3071 3068 3065 3064 3061 3061 3057 3054 3050 3047 3044 3041 3037 3033 3030 3026 3022 3018 3014 3009 3004 2998 2992 2985 2979 2973 2967 2962 2956 2951 2947 2945 2942 2940 2935 2937 2942 2944 2942
3068 3068 3066 3063 3061 3060 3057 3056 3054 3051 3048 3044 3041 3038 3035 3032 3028 3024 3020 3017 3013 3009 3004 2999 2993 2987 2979 2972 2965 2960 2953 2947 2941 2934 2931 2929 2927 2920 2916 2914 2917 2923 2928
3059 3059 3057 3055 3053 3051 3050 3048 3045 3042 3039 3035 3032 3029 3026 3022 3019 3015 3011 3007 3003 2998 2994 2988 2981 2974 2966 2959 2952 2946 2939 2932 2925 2919 2915 2910 2908 2902 2899 2898 2895 2898 2905
3050 3048 3047 3046 3044 3044 3041 3038 3035 3033 3030 3027 3024 3020 3017 3013 3009 3006 3001 2997 2993 2988 2983 2977 2970 2961 2953 2945 2939 2932 2926 2919 2912 2906 2899 2895 2890 2888 2885 2883 2881 2879 2882
3039 3038 3037 3037 3035 3033 3031 3029 3027 3025 3021 3018 3015 3011 3007 3003 3000 2996 2992 2987 2983 2978 2973 2966 2958 2950 2941 2933 2925 2919 2912 2906 2902 2893 2887 2884 2880 2877 2874 2871 2869 2866 2867
3030 3029 3027 3027 3026 3024 3022 3020 3018 3015 3012 3009 3006 3002 2998 2994 2990 2986 2982 2977 2972 2968 2962 2956 2947 2938 2931 2923 2914 2906 2900 2896 2891 2884 2878 2873 2870 2867 2865 2862 2861 2858 2857
3021 3019 3017 3016 3015 3014 3013 3010 3008 3006 3003 2999 2996 2992 2988 2985 2980 2976 2972 2967 2963 2958 2952 2945 2937 2927 2919 2912 2904 2895 2888 2884 2878 2873 2869 2866 2862 2859 2857 2854 2851 2849 2847
3012 3011 3010 3007 3006 3004 3003 3001 2998 2995 2992 2990 2986 2982 2978 2974 2970 2966 2961 2956 2952 2946 2940 2933 2926 2917 2910 2903 2896 2888 2880 2873 2867 2862 2858 2855 2852 2849 2847 2845 2842 2840 2838
3003 3001 3000 2998 2996 2995 2992 2990 2988 2985 2982 2979 2976 2972 2968 2963 2959 2955 2950 2946 2941 2935 2929 2922 2913 2906 2899 2893 2887 2879 2872 2865 2859 2854 2850 2847 2843 2841 2838 2836 2833 2831 2830
2993 2992 2990 2988 2987 2984 2982 2980 2977 2974 2971 2968 2964 2960 2956 2952 2949 2945 2940 2935 2931 2925 2919 2913 2904 2897 2889 2884 2878 2870 2863 2857 2850 2845 2841 2838 2835 2832 2830 2827 2825 2823 2820
2982 2981 2980 2978 2976 2974 2971 2969 2966 2964 2960 2957 2953 2949 2945 2942 2938 2934 2930 2925 2920 2914 2908 2903 2895 2888 2881 2874 2868 2862 2855 2847 2841 2836 2832 2829 2826 2823 2821 2818 2815 2814 2809
2972 2971 2969 2967 2965 2963 2960 2957 2955 2952 2949 2945 2941 2938 2934 2930 2927 2923 2919 2914 2909 2903 2896 2891 2885 2879 2874 2868 2861 2854 2847 2840 2834 2828 2823 2819 2816 2813 2812 2810 2807 2803 2800
2960 2959 2957 2955 2953 2951 2948 2946 2943 2940 2937 2933 2930 2926 2922 2920 2916 2912 2908 2903 2898 2893 2886 2880 2875 2870 2865 2860 2855 2849 2841 2835 2828 2822 2817 2812 2808 2805 2802 2801 2798 2794 2790
2949 2948 2946 2944 2941 2938 2936 2933 2931 2927 2923 2920 2916 2913 2910 2907 2903 2899 2896 2891 2887 2882 2876 2871 2866 2861 2857 2852 2847 2842 2837 2831 2824 2818 2811 2806 2801 2797 2794 2792 2790 2786 2782
2938 2936 2934 2932 2929 2926 2923 2920 2917 2913 2909 2905 2902 2899 2896 2893 2890 2887 2884 2880 2876 2871 2865 2861 2857 2853 2850 2846 2841 2836 2831 2826 2820 2813 2807 2800 2794 2789 2787 2784 2781 2777 2774
2926 2924 2922 2920 2917 2913 2909 2906 2902 2898 2895 2892 2887 2883 2881 2879 2877 2875 2872 2869 2865 2860 2856 2852 2848 2845 2842 2838 2834 2830 2825 2820 2814 2808 2802 2795 2789 2784 2780 2776 2773 2770 2766
2915 2913 2910 2907 2903 2899 2894 2889 2885 2881 2878 2875 2873 2869 2866 2866 2864 2862 2860 2856 2854 2850 2846 2843 2840 2837 2833 2830 2827 2823 2819 2814 2809 2803 2797 2791 2785 2779 2774 2769 2766 2762 2759
2903 2900 2897 2893 2888 2882 2877 2872 2867 2862 2859 2857 2855 2853 2851 2850 2850 2850 2847 2844 2842 2839 2836 2834 2832 2829 2825 2822 2819 2815 2811 2807 2803 2798 2793 2787 2781 2776 2770 2765 2760 2756 2753
2890 2886 2882 2877 2871 2865 2859 2852 2846 2841 2838 2836 2836 2835 2834 2834 2836 2837 2835 2832 2830 2829 2826 2825 2823 2820 2818 2815 2811 2808 2805 2801 2797 2793 2788 2783 2778 2772 2767 2762 2756 2752 2748
2877 2872 2866 2860 2853 2846 2838 2831 2824 2819 2816 2815 2815 2816 2817 2818 2821 2823 2823 2821 2820 2819 2816 2815 2814 2812 2810 2807 2804 2801 2798 2794 2791 2787 2783 2779 2774 2769 2764 2758 2753 2748 2744
2862 2856 2850 2842 2834 2827 2819 2811 2804 2798 2795 2794 2796 2798 2802 2804 2807 2809 2810 2810 2810 2809 2808 2807 2806 2805 2803 2801 2798 2795 2792 2788 2785 2781 2777 2774 2770 2765 2761 2756 2751 2746 2741
2847 2841 2834 2827 2819 2810 2802 2794 2787 2782 2779 2779 2782 2785 2788 2792 2795 2797 2799 2800 2800 2800 2800 2800 2799 2798 2797 2795 2792 2789 2786 2782 2779 2775 2772 2769 2765 2762 2758 2753 2749 2745 2740
2832 2826 2820 2813 2805 2798 2790 2784 2778 2773 2771 2772 2773 2775 2778 2782 2785 2787 2789 2791 2791 2792 2793 2793 2792 2792 2790 2789 2786 2783 2780 2777 2774 2771 2767 2764 2761 2758 2754 2751 2747 2743 2739